Location: Newark
(22.3060°N, 114.2134°E)
Time: 03:53:51
(UTC+00:00)

Explorer 11/Cluster Stage 4 - Pass Details

Date: 31 July 2021
Orbit: 467 x 1256 km, 28.8° (Epoch: 21 September)

Event Time Altitude Azimuth Distance (km) Brightness Sun altitude
Rises 06:53:09 0° 289° (WNW) 4,016 10.7 56.2°
Reaches altitude 10° 06:56:12 10° 288° (WNW) 2,960 10.3 55.4°
Maximum altitude 07:03:28 77° 203° (SSW) 973 8.2 53.8°
Drops below altitude 10° 07:09:15 10° 117° (ESE) 2,388 8.8 52.4°
Sets 07:11:30 0° 116° (ESE) 3,200 9.4 51.9°
